Home   Weather   Chelyabinsk   Past weeks
Flag for Russia

Past Weather in Chelyabinsk, Russia — Yesterday and Last 2 Weeks

Now
77 °F

Sunny.


Feels Like: 77 °F
Forecast: 81 / 57 °F
Wind: 20 mph from South

Location: Chelyabinsk-Balandino

Current Time: May 27, 2019 at 3:22:39 pm

Latest Report: May 27, 2019 at 2:30 pm


Visibility: 10 mi

Pressure: 30.04 "Hg

Humidity: 21%

Dew Point: 34 °F

Location of ChelyabinskLocation

Past Weather in Chelyabinsk — Graph

°F

Chelyabinsk Temperature Yesterday

Maximum temperature yesterday: 66 °F (at 5:30 pm)
Minimum temperature yesterday: 37 °F (at 12:30 am)
Average temperature yesterday: 53 °F

High & Low Weather Summary for the Past Weeks

 TemperatureHumidityPressure
High82 °F (May 12, 3:30 pm)100% (May 20, 4:00 am)30.33 "Hg (May 20, 4:00 am)
Low30 °F (May 20, 1:30 am)21% (May 27, 2:00 pm)29.47 "Hg (May 24, 7:00 am)
Average51 °F60%29.91 "Hg
* Reported May 12 2:00 pm — May 27 2:00 pm, Chelyabinsk. Weather by CustomWeather, © 2019

Note: Actual official high and low records may vary slightly from our data, if they occured in-between our weather recording intervals... More about our weather records

Advertising

Chelyabinsk Weather History for the Previous 24 Hours

Scroll right to see more
 ConditionsComfort  
Time TempWeatherWind HumidityBarometerVisibility
2:00 pm
Mon, May 27
75 °FSunny.17 mph21%30.04 "Hg10 mi
1:30 pm73 °FSunny.17 mph23%30.04 "Hg10 mi
1:00 pm75 °FSunny.15 mph24%30.04 "Hg10 mi
12:30 pm75 °FSunny.17 mph24%30.04 "Hg10 mi
12:00 pm73 °FSunny.17 mph27%30.07 "Hg10 mi
11:30 am73 °FSunny.15 mph23%30.07 "Hg10 mi
11:00 am72 °FSunny.15 mph25%30.07 "Hg10 mi
10:30 am72 °FSunny.17 mph27%30.07 "Hg10 mi
10:00 am68 °FSunny.17 mph26%30.07 "Hg10 mi
9:30 am68 °FSunny.13 mph30%30.07 "Hg10 mi
9:00 am66 °FSunny.15 mph30%30.07 "Hg10 mi
8:30 am64 °FSunny.13 mph32%30.07 "Hg10 mi
8:00 am63 °FSunny.13 mph34%30.07 "Hg10 mi
7:30 am61 °FSunny.13 mph36%30.07 "Hg10 mi
7:00 am59 °FSunny.13 mph39%30.07 "Hg10 mi
6:30 am57 °FSunny.8 mph41%30.07 "Hg10 mi
6:00 am55 °FSunny.8 mph44%30.07 "Hg10 mi
5:30 am54 °FSunny.8 mph47%30.07 "Hg10 mi
5:00 am52 °FClear.1 mph50%30.07 "Hg10 mi
4:30 am48 °FClear.1 mph58%30.07 "Hg10 mi
4:00 am48 °FClear.3 mph58%30.07 "Hg10 mi
3:30 am46 °FClear.8 mph66%30.07 "Hg10 mi
3:00 am43 °FClear.3 mph76%30.07 "Hg10 mi
2:30 am48 °FClear.No wind58%30.07 "Hg10 mi
2:00 am48 °FClear.8 mph62%30.07 "Hg10 mi
1:30 am48 °FClear.8 mph62%30.07 "Hg10 mi
1:00 am48 °FClear.6 mph62%30.09 "Hg10 mi
12:30 am52 °FClear.6 mph54%30.09 "Hg10 mi
12:00 am50 °FClear.6 mph58%30.09 "Hg10 mi
11:30 pm
Sun, May 26
54 °FClear.6 mph51%30.09 "Hg10 mi
11:00 pm52 °FClear.6 mph50%30.09 "Hg10 mi
10:30 pm54 °FClear.8 mph54%30.09 "Hg10 mi
10:00 pm55 °FSunny.8 mph44%30.09 "Hg10 mi
9:30 pm57 °FSunny.6 mph41%30.09 "Hg10 mi
9:00 pm57 °FSunny.6 mph41%30.09 "Hg10 mi
8:30 pm61 °FSunny.3 mph36%30.09 "Hg10 mi
8:00 pm63 °FSunny.6 mph30%30.09 "Hg10 mi
7:30 pm64 °FSunny.8 mph28%30.09 "Hg10 mi
7:00 pm64 °FSunny.6 mph26%30.09 "Hg10 mi
6:30 pm64 °FSunny.8 mph26%30.09 "Hg10 mi
6:00 pm66 °FSunny.6 mph24%30.09 "Hg10 mi
5:30 pm66 °FPassing clouds.8 mph26%30.09 "HgN/A
5:00 pm64 °FPassing clouds.6 mph28%30.09 "HgN/A
4:30 pm64 °FPassing clouds.6 mph28%30.12 "HgN/A
4:00 pm64 °FPassing clouds.8 mph28%30.12 "HgN/A
3:30 pm64 °FSunny.8 mph30%30.12 "Hg10 mi
3:00 pm63 °FPassing clouds.8 mph27%30.12 "HgN/A
Weather by CustomWeather, © 2019

See weather overview